Overview Statistics Trail Chart Weather Telemetry Raw packets
 

This is the latest recevied weather packets stored in our database for station/object KQ7A. If no packets are shown the sender has not sent any weather packets the latest 10 day(s).

<< 110 111 112 113 114 >>
Time Temp. Humidity Pressure Rain* Wind** Luminosity Snow
1787845429 22.78° C 48% 1022.9 hPa 0 mm - 285 W/m² -
1787845125 22.78° C 50% 1023 hPa 0 mm - 279 W/m² -
1787844821 22.22° C 49% 1022.7 hPa 0 mm - 292 W/m² -
1787844519 21.67° C 50% 1022.9 hPa 0 mm - 271 W/m² -
1787844215 22.22° C 50% 1022.9 hPa 0 mm - 273 W/m² -
1787843914 22.22° C 50% 1022.9 hPa 0 mm - 248 W/m² -
1787843609 20.56° C 54% 1022.9 hPa 0 mm - 200 W/m² -
1787843306 20° C 55% 1022.9 hPa 0 mm - 181 W/m² -
1787843001 19.44° C 58% 1022.9 hPa 0 mm - 143 W/m² -
1787842700 19.44° C 57% 1023.1 hPa 0 mm - 121 W/m² -
1787842396 19.44° C 58% 1022.9 hPa 0 mm - 95 W/m² -
1787842096 19.44° C 55% 1022.8 hPa 0 mm - 84 W/m² -
1787841791 18.33° C 58% 1022.9 hPa 0 mm - 69 W/m² -
1787841486 17.22° C 62% 1022.7 hPa 0 mm - 53 W/m² -
1787841185 16.67° C 65% 1023.1 hPa 0 mm - 48 W/m² -
1787840880 15.56° C 67% 1022.7 hPa 0 mm - 44 W/m² -
1787840575 15° C 73% 1022.8 hPa 0 mm - 38 W/m² -
1787840271 15° C 69% 1023 hPa 0 mm - 29 W/m² -
1787839970 15° C 69% 1022.7 hPa 0 mm - 27 W/m² -
1787839666 14.44° C 66% 1022.4 hPa 0 mm - 25 W/m² -
1787839365 14.44° C 67% 1022.4 hPa 0 mm - 22 W/m² -
1787839060 14.44° C 66% 1022.8 hPa 0 mm - 21 W/m² -
1787838758 13.89° C 69% 1022.6 hPa 0 mm - 18 W/m² -
1787838458 13.89° C 67% 1022.4 hPa 0 mm - 14 W/m² -
1787838153 13.89° C 67% 1022.3 hPa 0 mm - 10 W/m² -

* Rain latest hour (hover to see other rain measurements)
** Current wind speed in m/s (hover to see current wind gust speed)